[[[{"header":{"parameterUnit":"kt","parameterCategory":2,"dx":1,"dy":1,"la1":30.253999710083008,"la2":30.299108505249023,"lo1":-89.0895004272461,"lo2":-89.04439544677734,"nx":28,"ny":28,"refTime":"2022-10-13T21:00:00:Z","depth":0,"parameterNumber":1,"parameterNumberName":"U-component_of_WINDS"},"data":[0.0726,0.071,0.0735,0.0728,0.0749,0.0748,0.0756,0.0769,0.0785,0.0787,0.0793,0.0817,0.0843,0.0855,0.0862,0.0873,0.0872,0.0849,0.0864,0.095,0.0964,0.0976,0.0981,0.0849,0.0849,0.077,0.0769,0.0769,0.0785,0.0806,0.081,0.083,0.0834,0.0872,0.0892,0.0892,0.089,0.0911,0.0918,0.0922,0.0929,0.0964,0.0975,0.0967,0.0985,0.0968,0.0967,0.097,0.1064,0.1068,0.0953,0.0953,0.0953,0.0953,0.0953,0.0953,0.0899,0.0889,0.0916,0.0921,0.0938,0.0952,0.0946,0.0976,0.098,0.0994,0.1024,0.1023,0.1048,0.1074,0.1089,0.1089,0.1112,0.1101,0.1097,0.1093,0.1083,0.1188,0.1092,0.1093,0.1093,0.1094,0.1094,0,0.0989,0.101,0.1016,0.1029,0.1034,0.1047,0.1063,0.1061,0.1116,0.1117,0.1121,0.1128,0.1141,0.1147,0.1164,0.1182,0.1219,0.1228,0.122,0.1202,0.1185,0.119,0.1338,0.123,0.1231,0.1232,0.1232,0.1233,0.1102,0.1088,0.1129,0.113,0.1145,0.1146,0.1152,0.1202,0.1205,0.1232,0.1221,0.1229,0.1238,0.1241,0.1275,0.1285,0.1303,0.1258,0.1305,0.1289,0.1298,0.1297,0.1294,0.1246,0.1245,0.1243,0.1242,0,0.1163,0.1204,0.1191,0.1234,0.1244,0.1227,0.1263,0.1256,0.1286,0.128,0.1281,0.1327,0.1331,0.1373,0.1387,0.1408,0.1379,0.1398,0.1369,0.1374,0.1336,0.1337,0.121,0.1195,0.1336,0.1334,0.1333,0,0.1274,0.1254,0.1317,0.1307,0.1288,0.1338,0.1317,0.134,0.1364,0.1359,0.1411,0.1405,0.1461,0.1462,0.1494,0.1478,0.1482,0.1496,0.1504,0.149,0.1487,0.1489,0.1494,0.1528,0.1529,0.1529,0.153,0,0.1362,0.1374,0.1359,0.1369,0.1412,0.1404,0.1421,0.1449,0.1454,0.1468,0.1472,0.1485,0.1491,0.15,0.1541,0.157,0.1524,0.1573,0.1538,0.1537,0.1523,0.1522,0.1402,0.153,0.1531,0.1531,0.1531,0,0.1457,0.147,0.1444,0.148,0.1481,0.1472,0.1488,0.149,0.1515,0.1535,0.1547,0.1585,0.1577,0.1622,0.1611,0.1638,0.1641,0.1655,0.1654,0.1652,0.17,0.1622,0.1507,0.1495,0.1655,0.1656,0.1657,0,0.1544,0.1529,0.1572,0.1546,0.1544,0.1601,0.1592,0.1613,0.1639,0.1641,0.167,0.1673,0.1716,0.1722,0.1712,0.1741,0.1707,0.1747,0.1747,0.1746,0.1734,0.163,0.16,0.1529,0.1671,0.1669,0.1668,0,0.1617,0.167,0.1662,0.1674,0.171,0.171,0.17,0.1714,0.1713,0.1732,0.1723,0.173,0.1762,0.1772,0.1805,0.1792,0.1731,0.1828,0.1829,0.1806,0.1683,0.1654,0.1642,0.1756,0.1755,0.1753,0.1679,0,0.1745,0.1744,0.1726,0.1752,0.1759,0.1746,0.1791,0.1792,0.1823,0.185,0.1841,0.187,0.1883,0.1883,0.1913,0.187,0.1883,0.1917,0.1961,0.1894,0.187,0.1861,0.1992,0.1994,0.1995,0.1996,0,0,0.1816,0.1815,0.1863,0.1855,0.1863,0.1922,0.1904,0.1919,0.1948,0.1952,0.1978,0.199,0.2013,0.1995,0.1978,0.1985,0.1981,0.2003,0.1926,0.1918,0.1911,0.1885,0.1875,0.1999,0.1999,0.2,0.2,0,0.1872,0.1894,0.1876,0.1894,0.1922,0.1952,0.1948,0.1986,0.2003,0.1995,0.2042,0.2042,0.2052,0.2068,0.2077,0.2007,0.2042,0.2009,0.1954,0.1938,0.1928,0.192,0.1892,0.1882,0.2004,0.2003,0.2003,0,0.1949,0.1977,0.1974,0.1997,0.2016,0.2014,0.2072,0.2068,0.2066,0.2131,0.2121,0.2143,0.2169,0.2149,0.2141,0.2164,0.2094,0.2126,0.2118,0.2118,0.2104,0.2093,0.2082,0.222,0.222,0.2221,0,0,0.199,0.199,0.2035,0.2012,0.2021,0.2065,0.2069,0.21,0.2122,0.2131,0.216,0.218,0.2186,0.2188,0.2196,0.2168,0.2176,0.215,0.214,0.2132,0.2126,0.211,0.2099,0.2223,0.2223,0.2223,0,0,0.201,0.2061,0.2088,0.2067,0.2087,0.213,0.2114,0.2148,0.2159,0.2166,0.2217,0.2225,0.2207,0.2227,0.225,0.2212,0.2256,0.2251,0.2199,0.2187,0.2177,0.2171,0.2312,0,0,0,0,0,0.2089,0.2055,0.2079,0.2082,0.2112,0.2117,0.2121,0.2163,0.2192,0.2178,0.2208,0.2246,0.225,0.2271,0.2274,0.2246,0.225,0.2246,0.2241,0.2168,0.2154,0.2143,0,0,0,0,0,0,0.2091,0.2094,0.208,0.2121,0.2128,0.2118,0.2177,0.2188,0.2195,0.2202,0.2239,0.2247,0.2283,0.2273,0.2275,0.2248,0.2312,0.2248,0.2244,0.2241,0.2163,0.2152,0.2143,0,0,0,0,0,0.2092,0.2095,0.2131,0.2122,0.2128,0.2176,0.2179,0.2188,0.2194,0.224,0.2249,0.2225,0.2281,0.2285,0.2274,0.2246,0.2311,0.2312,0.2246,0.2243,0.224,0.2158,0,0,0,0,0,0,0.2093,0.2104,0.2134,0.2137,0.2138,0.2177,0.2185,0.2188,0.2232,0.2241,0.2228,0.2234,0.2279,0.2283,0.2286,0.2243,0.2311,0.2311,0.2311,0.2243,0.2241,0.2239,0,0,0,0,0,0,0.2102,0.2106,0.2135,0.2153,0.2159,0.2178,0.2185,0.2182,0.2232,0.2219,0.2225,0.223,0.2275,0.2281,0.2283,0.2278,0.231,0.2311,0.2311,0.2311,0.2241,0.2239,0,0,0,0,0,0,0.2105,0.2108,0.2152,0.2157,0.2162,0.2204,0.2177,0.2204,0.2247,0.2216,0.2252,0.2254,0.2272,0.2275,0.2281,0.2274,0.2277,0.231,0.2311,0.2311,0.2311,0,0,0,0,0,0,0,0.2107,0.2075,0.2113,0.216,0.2165,0.2169,0.217,0.217,0.2247,0.2249,0.2251,0.2253,0.2308,0.2309,0.2309,0.2272,0,0,0.231,0.231,0,0,0,0,0,0,0,0,0.2074,0.2075,0.2113,0.2114,0.2115,0.2169,0.217,0.217,0.2248,0.2249,0.2251,0.2252,0.2308,0.2309,0.2309,0,0,0,0,0,0,0,0,0,0,0,0,0,0,0,0.2113,0.2114,0,0.2169,0.2169,0.217,0.2248,0.2249,0.2251,0.2252,0.2308,0.2309,0.2309,0,0,0,0,0,0,0,0,0,0,0,0,0,0,0,0,0,0,0,0,0,0,0,0,0,0,0,0,0,0,0,0,0,0,0,0,0,0,0,0,0,0,0,0,0,0,0,0,0,0,0,0,0,0,0,0,0,0,0,0,0,0,0,0,0,0,0,0,0]}],[{"header":{"parameterUnit":"kt","parameterCategory":2,"dx":1,"dy":1,"la1":30.253999710083008,"la2":30.299108505249023,"lo1":-89.0895004272461,"lo2":-89.04439544677734,"nx":28,"ny":28,"refTime":"2022-10-13T21:00:00:Z","depth":0,"parameterNumber":2,"parameterNumberName":"V-component_of_WINDS"},"data":[-0.0816,-0.0782,-0.0801,-0.077,-0.0782,-0.0764,-0.0763,-0.0764,-0.0768,-0.0748,-0.0739,-0.0751,-0.0761,-0.0754,-0.0744,-0.0749,-0.0746,-0.0723,-0.0734,-0.0822,-0.0835,-0.0848,-0.086,-0.072,-0.072,-0.0642,-0.0641,-0.0641,-0.0889,-0.0901,-0.0888,-0.0889,-0.088,-0.0915,-0.0917,-0.0906,-0.0888,-0.0891,-0.0882,-0.0864,-0.085,-0.0867,-0.0857,-0.0841,-0.0857,-0.0838,-0.0841,-0.0843,-0.0937,-0.095,-0.0826,-0.0826,-0.0826,-0.0826,-0.0826,-0.0826,-0.1027,-0.1004,-0.1016,-0.1002,-0.1006,-0.1006,-0.0987,-0.1004,-0.099,-0.0982,-0.1002,-0.098,-0.0986,-0.0979,-0.0979,-0.0963,-0.0986,-0.097,-0.0967,-0.0964,-0.0961,-0.1082,-0.096,-0.0961,-0.0961,-0.0961,-0.0962,0,-0.1135,-0.1152,-0.114,-0.1134,-0.1124,-0.112,-0.1118,-0.1106,-0.1144,-0.113,-0.1112,-0.1103,-0.1086,-0.107,-0.1062,-0.1065,-0.1099,-0.1101,-0.1091,-0.1085,-0.1083,-0.109,-0.1248,-0.1105,-0.1106,-0.1107,-0.1108,-0.1108,-0.128,-0.1248,-0.1266,-0.1255,-0.1259,-0.1238,-0.123,-0.1265,-0.1254,-0.1256,-0.1232,-0.1215,-0.1205,-0.1168,-0.1184,-0.117,-0.1186,-0.1131,-0.1184,-0.118,-0.1192,-0.1196,-0.1196,-0.1122,-0.112,-0.1118,-0.1117,0,-0.1362,-0.1389,-0.1345,-0.1364,-0.1367,-0.1332,-0.1348,-0.1324,-0.134,-0.1309,-0.1304,-0.1329,-0.1308,-0.1332,-0.131,-0.1324,-0.127,-0.1283,-0.1271,-0.1277,-0.1235,-0.124,-0.1081,-0.1064,-0.1203,-0.1202,-0.1201,0,-0.1498,-0.1453,-0.1498,-0.147,-0.1423,-0.1459,-0.141,-0.142,-0.1423,-0.1399,-0.144,-0.1416,-0.145,-0.1429,-0.1448,-0.1407,-0.1401,-0.141,-0.1417,-0.141,-0.1409,-0.1406,-0.1415,-0.1425,-0.1425,-0.1426,-0.1427,0,-0.1627,-0.1594,-0.1549,-0.1546,-0.1559,-0.1536,-0.154,-0.1543,-0.1533,-0.1522,-0.1517,-0.1499,-0.1491,-0.1478,-0.1504,-0.154,-0.1451,-0.1505,-0.1462,-0.1461,-0.1443,-0.1444,-0.1294,-0.1428,-0.1428,-0.1428,-0.1429,0,-0.1742,-0.1733,-0.166,-0.1674,-0.1664,-0.1631,-0.1621,-0.1598,-0.1597,-0.1608,-0.1599,-0.1629,-0.159,-0.1644,-0.1592,-0.1633,-0.1623,-0.1627,-0.1624,-0.1625,-0.1686,-0.1604,-0.1454,-0.1442,-0.1624,-0.1625,-0.1627,0,-0.1886,-0.1818,-0.1849,-0.1777,-0.175,-0.1802,-0.1766,-0.1763,-0.1775,-0.1753,-0.1764,-0.1737,-0.1781,-0.1776,-0.1746,-0.1757,-0.1704,-0.1764,-0.1735,-0.1733,-0.1741,-0.1602,-0.1576,-0.1484,-0.1647,-0.1645,-0.1644,0,-0.2,-0.2016,-0.2,-0.2,-0.2002,-0.1976,-0.1933,-0.1915,-0.19,-0.1888,-0.1856,-0.1813,-0.1848,-0.1836,-0.1857,-0.1825,-0.1741,-0.1865,-0.1865,-0.1847,-0.1657,-0.1635,-0.1619,-0.1762,-0.176,-0.1758,-0.166,0,-0.2181,-0.2147,-0.2105,-0.2096,-0.208,-0.2033,-0.206,-0.204,-0.2064,-0.2077,-0.2025,-0.2023,-0.2,-0.1985,-0.2006,-0.1923,-0.1942,-0.1976,-0.2032,-0.1938,-0.1907,-0.1894,-0.2077,-0.2079,-0.208,-0.2081,0,0,-0.2314,-0.2266,-0.2299,-0.2259,-0.2248,-0.2301,-0.225,-0.2243,-0.2228,-0.222,-0.2251,-0.2191,-0.2187,-0.2121,-0.2094,-0.2081,-0.207,-0.21,-0.1981,-0.197,-0.196,-0.1926,-0.1911,-0.2084,-0.2084,-0.2085,-0.2085,0,-0.2387,-0.2384,-0.2332,-0.2328,-0.2324,-0.234,-0.2327,-0.2331,-0.2336,-0.2282,-0.2325,-0.2295,-0.2241,-0.2236,-0.2225,-0.2108,-0.2142,-0.2098,-0.203,-0.1995,-0.1982,-0.197,-0.1934,-0.192,-0.2089,-0.2089,-0.2089,0,-0.2509,-0.2513,-0.2489,-0.2463,-0.246,-0.2426,-0.2493,-0.2452,-0.2428,-0.2483,-0.2429,-0.243,-0.2421,-0.2351,-0.2321,-0.2348,-0.2207,-0.2252,-0.2243,-0.2241,-0.2208,-0.2192,-0.2178,-0.2367,-0.2368,-0.2368,0,0,-0.2568,-0.2535,-0.2548,-0.248,-0.2476,-0.2497,-0.248,-0.2502,-0.2494,-0.249,-0.2493,-0.2482,-0.2453,-0.2432,-0.2404,-0.2323,-0.2326,-0.2285,-0.2272,-0.2262,-0.2254,-0.2218,-0.2202,-0.2372,-0.2372,-0.2372,0,0,-0.2595,-0.2609,-0.2636,-0.256,-0.2552,-0.2559,-0.2517,-0.2548,-0.2526,-0.2535,-0.2567,-0.2565,-0.25,-0.2498,-0.2541,-0.2425,-0.248,-0.247,-0.2429,-0.2413,-0.24,-0.2404,-0.2607,0,0,0,0,0,-0.2683,-0.2609,-0.2632,-0.2623,-0.2587,-0.2546,-0.2542,-0.2569,-0.261,-0.2576,-0.2584,-0.2619,-0.253,-0.2568,-0.2558,-0.251,-0.2415,-0.2408,-0.24,-0.233,-0.2312,-0.2298,0,0,0,0,0,0,-0.268,-0.2669,-0.2634,-0.2638,-0.263,-0.2549,-0.2624,-0.263,-0.2614,-0.2622,-0.2617,-0.2619,-0.2639,-0.2575,-0.2566,-0.252,-0.2611,-0.2412,-0.2406,-0.24,-0.2324,-0.231,-0.2298,0,0,0,0,0,-0.2678,-0.2669,-0.2604,-0.2639,-0.2632,-0.2651,-0.2627,-0.2632,-0.262,-0.2631,-0.2635,-0.2642,-0.2637,-0.263,-0.257,-0.2524,-0.2618,-0.2614,-0.2408,-0.2403,-0.2398,-0.2317,0,0,0,0,0,0,-0.2676,-0.2672,-0.2603,-0.2602,-0.2669,-0.2656,-0.2655,-0.2634,-0.2631,-0.2634,-0.2659,-0.2665,-0.2635,-0.263,-0.2625,-0.2524,-0.2623,-0.2619,-0.2617,-0.2404,-0.24,-0.2396,0,0,0,0,0,0,-0.2677,-0.2671,-0.2603,-0.2639,-0.2642,-0.266,-0.2659,-0.2609,-0.263,-0.2659,-0.2664,-0.2661,-0.2642,-0.2629,-0.2625,-0.2546,-0.2628,-0.2624,-0.2622,-0.262,-0.2401,-0.2398,0,0,0,0,0,0,-0.2675,-0.267,-0.264,-0.2642,-0.2645,-0.2635,-0.2616,-0.2577,-0.2664,-0.2658,-0.2672,-0.2676,-0.2639,-0.2636,-0.2625,-0.2548,-0.2547,-0.2628,-0.2625,-0.2623,-0.2622,0,0,0,0,0,0,0,-0.2673,-0.2703,-0.261,-0.2644,-0.2647,-0.2592,-0.2592,-0.2591,-0.2665,-0.2668,-0.2671,-0.2675,-0.2649,-0.2645,-0.2641,-0.2549,0,0,-0.2628,-0.2626,0,0,0,0,0,0,0,0,-0.2706,-0.2704,-0.261,-0.261,-0.2609,-0.2592,-0.2592,-0.2591,-0.2665,-0.2668,-0.2671,-0.2673,-0.2647,-0.2644,-0.2641,0,0,0,0,0,0,0,0,0,0,0,0,0,0,0,-0.261,-0.261,0,-0.2592,-0.2592,-0.2591,-0.2666,-0.2668,-0.267,-0.2672,-0.2647,-0.2644,-0.2641,0,0,0,0,0,0,0,0,0,0,0,0,0,0,0,0,0,0,0,0,0,0,0,0,0,0,0,0,0,0,0,0,0,0,0,0,0,0,0,0,0,0,0,0,0,0,0,0,0,0,0,0,0,0,0,0,0,0,0,0,0,0,0,0,0,0,0,0,0]}]]]